Weather Roundup
Issued by NWS Corpus Christi, TX

Current Version | Previous Version | Text Only | Print | Product List | Glossary On
Versions: 1 2 3 4 5 6 7 8 9 10 11 12 13 14 15 16 17 18 19 20 21 22 23 24 25 26 27 28 29 30 31 32 33 34 35 36 37 38 39 40 41 42 43 44 45 46 47 48 49 50
000
ASUS44 KCRP 221610
HRRCRP

SOUTH TEXAS REGIONAL WEATHER ROUNDUP
NATIONAL WEATHER SERVICE CORPUS CHRISTI TX
1100 AM CDT WED OCT 22 2014


TXZ229>244-221700-
...CORPUS CHRISTI AREA OBSERVATIONS...

CITY           SKY/WX    TMP DP  RH WIND       PRES   REMARKS
CORPUS CHRISTI MOSUNNY   79  69  71 NE13      30.06R
NAS CORPUS CHR MOSUNNY   81  69  67 E15       30.05R
ROCKPORT       SUNNY     80  69  69 NE12      30.07R
KINGSVILLE NAS MOSUNNY   82  71  69 NE9       30.06R
ALICE          SUNNY     80  67  64 E9        30.07R
FALFURRIAS     SUNNY     79  67  66 E10       30.05S
$$

...VICTORIA AREA OBSERVATIONS...

CITY           SKY/WX    TMP DP  RH WIND       PRES   REMARKS
VICTORIA       SUNNY     80  64  58 E12       30.10R
BEEVILLE       FAIR      80  64  59 E13       30.08S
PLEASANTON     SUNNY     77  60  54 E10       30.12R
SAN ANTONIO    MOSUNNY   76  57  51 E13       30.13R
$$

...LAREDO AREA OBSERVATIONS...

CITY           SKY/WX    TMP DP  RH WIND       PRES   REMARKS
LAREDO         SUNNY     78  67  68 E12       30.10R
COTULLA        SUNNY     78  61  55 E13       30.09S
DEL RIO        CLOUDY    71  57  61 E7        30.11R
MCALLEN        PTSUNNY   77  71  82 E7        30.05R
HEBBRONVILLE   PTSUNNY   78  64  61 E13       30.09R
$$

...OTHER TEXAS OBSERVATIONS...

CITY           SKY/WX    TMP DP  RH WIND       PRES   REMARKS
BROWNSVILLE    PTSUNNY   79  75  89 NW5       30.02S
HOUSTON        MOSUNNY   76  60  57 E9        30.12R
COL. STATION   SUNNY     75  62  64 SE9       30.14R
AUSTIN         MOSUNNY   73  62  68 VRB6      30.13S
WACO           PTSUNNY   73  62  68 SE9       30.16R
FORT WORTH     MOSUNNY   74  62  66 SE9       30.16R
WICHITA FALLS  PTSUNNY   73  58  59 S13       30.15R
LUBBOCK        CLOUDY    62  59  90 SE8       30.16R FOG
EL PASO        PTSUNNY   65  57  75 CALM      30.15R
$$

...MARINE OBSERVATIONS...

STATION/POSITION TIME  SKY/WX   TEMP    WIND        PRES    VSBY  WAVE   SWELL
                                AIR SEA DIR/SP/G                  HT/PER HT/PER
                 (UTC)          (F)     (DEG/KT/KT) (MB)    (MI)  (FT/S) (FT/S)
PORT ARANSAS     1600            78 78   70/ 16/ 17 1018.5R
BUOY 90 E PORT A 1600            78 81   70/ 14/ 19 1017.9R         5/ 7   3/ 7
BUOY 45 SE BAFFI 1600            79 81   80/ 16/ 17 1016.3R         5/ 7
BUOY 200 E PT IS 1600            79 81   70/ 17/ 21 1015.1R         7/ 6
BUOY 15 E GALVES 1600            75 77   70/ 14/ 17 1018.3R         4/ 6
$$



USA.gov is the U.S. government's official web portal to all federal, state and local government web resources and services.